[[{"header":{"parameterUnit":"m.s-1","parameterCategory":1,"la1":30.2991,"la2":30.254,"lo1":-89.0895,"lo2":-89.0444,"dy":0.0017,"dx":0.0017,"nx":28,"ny":28,"refTime":"2026-01-08T03:00:00:Z","depth":0,"parameterNumber":2,"parameterNumberName":"U-component_of_WINDS"},"data":[0,0,0,0,0,0,0,0,0,0,0,0,0,0,0,0,0,0,0,0,0,0,0,0,0,0,0,0,0,0,0,0,0,0,0,0,0,0,0,0,0,0,0,0,0,0,0,0,0,0,0,0,0,0,0,0,0,0,-1.1068,-1.1067,0,-1.105,-1.105,-1.105,-1.103,-1.103,-1.103,-1.1029,-1.1012,-1.1012,-1.1012,0,0,0,0,0,0,0,0,0,0,0,0,0,-1.1085,-1.1084,-1.1068,-1.1067,-1.1067,-1.105,-1.105,-1.105,-1.103,-1.103,-1.103,-1.1029,-1.1012,-1.1012,-1.1012,0,0,0,0,0,0,0,0,0,0,0,0,0,-1.1073,-1.1084,-1.1068,-1.1055,-1.1054,-1.105,-1.105,-1.105,-1.103,-1.103,-1.103,-1.1029,-1.1012,-1.1012,-1.1012,-1.1019,0,0,-1.1011,-1.1011,0,0,0,0,0,0,0,0,-1.1074,-1.1073,-1.1057,-1.1056,-1.1055,-1.1042,-1.105,-1.1039,-1.1031,-1.1039,-1.1029,-1.1029,-1.1023,-1.1021,-1.1019,-1.1018,-1.1017,-1.1011,-1.1011,-1.1011,-1.1011,0,0,0,0,0,0,0,-1.1075,-1.1073,-1.1061,-1.1057,-1.1056,-1.1051,-1.1049,-1.1048,-1.1034,-1.1039,-1.1037,-1.1035,-1.1022,-1.1019,-1.1019,-1.1017,-1.1011,-1.1011,-1.1011,-1.1011,-1.102,-1.1021,0,0,0,0,0,0,-1.1077,-1.1074,-1.1061,-1.106,-1.1063,-1.1051,-1.1049,-1.1047,-1.1034,-1.1031,-1.1036,-1.1035,-1.102,-1.1019,-1.1018,-1.1025,-1.1011,-1.101,-1.101,-1.102,-1.102,-1.1021,0,0,0,0,0,0,-1.1078,-1.1076,-1.1062,-1.1067,-1.1064,-1.1051,-1.1049,-1.1046,-1.1044,-1.1031,-1.1029,-1.1036,-1.102,-1.1018,-1.1019,-1.1024,-1.101,-1.101,-1.1019,-1.102,-1.1021,-1.1039,0,0,0,0,0,0,-1.1078,-1.1077,-1.1079,-1.1067,-1.1064,-1.1063,-1.1049,-1.1046,-1.1044,-1.1042,-1.1031,-1.1029,-1.1019,-1.1019,-1.1018,-1.1023,-1.101,-1.1019,-1.102,-1.1021,-1.1038,-1.104,-1.1042,0,0,0,0,0,-1.1079,-1.1085,-1.1079,-1.1078,-1.1067,-1.1063,-1.1062,-1.1051,-1.1044,-1.1046,-1.1038,-1.1029,-1.1024,-1.1019,-1.1018,-1.1023,-1.1019,-1.102,-1.102,-1.1037,-1.1039,-1.1042,0,0,0,0,0,0,-1.1098,-1.1083,-1.1076,-1.1079,-1.1072,-1.106,-1.1062,-1.1054,-1.1049,-1.1048,-1.1035,-1.1032,-1.1034,-1.1029,-1.1024,-1.1029,-1.102,-1.1021,-1.1032,-1.1035,-1.1037,-1.1038,-1.101,0,0,0,0,0,-1.1103,-1.11,-1.1088,-1.1091,-1.1088,-1.1076,-1.1074,-1.1066,-1.1059,-1.1056,-1.1048,-1.1041,-1.1038,-1.1036,-1.1033,-1.1037,-1.1034,-1.104,-1.1042,-1.1044,-1.1044,-1.1046,-1.1048,-1.1024,-1.1024,-1.1024,0,0,-1.1112,-1.1103,-1.1103,-1.1094,-1.1089,-1.1087,-1.1074,-1.1072,-1.1071,-1.1056,-1.1055,-1.1049,-1.1041,-1.1043,-1.1044,-1.1039,-1.105,-1.1045,-1.1047,-1.1046,-1.1047,-1.1049,-1.1051,-1.1025,-1.1025,-1.1025,0,0,-1.1127,-1.1121,-1.1123,-1.1117,-1.1108,-1.11,-1.1101,-1.1089,-1.1085,-1.1084,-1.1072,-1.1071,-1.1066,-1.106,-1.1057,-1.1071,-1.1062,-1.107,-1.1081,-1.1082,-1.1084,-1.1086,-1.109,-1.1092,-1.1071,-1.1071,-1.1071,0,-1.114,-1.1137,-1.1125,-1.1124,-1.1121,-1.1107,-1.1108,-1.1103,-1.1094,-1.1092,-1.1087,-1.108,-1.1073,-1.1074,-1.1077,-1.1075,-1.1075,-1.1071,-1.1085,-1.1086,-1.1088,-1.1092,-1.1094,-1.1072,-1.1072,-1.1072,-1.1072,0,-1.1152,-1.115,-1.1153,-1.1144,-1.1141,-1.1141,-1.1129,-1.1128,-1.112,-1.1113,-1.1112,-1.1104,-1.1098,-1.1098,-1.1091,-1.1098,-1.1095,-1.1087,-1.1078,-1.1091,-1.1095,-1.1096,-1.1073,-1.1073,-1.1073,-1.1072,0,0,-1.1179,-1.1164,-1.1165,-1.116,-1.1149,-1.1147,-1.1148,-1.1142,-1.114,-1.1135,-1.1134,-1.113,-1.1123,-1.1119,-1.1111,-1.1113,-1.1124,-1.1105,-1.1105,-1.1108,-1.113,-1.1135,-1.1137,-1.1118,-1.1118,-1.1119,-1.1131,0,-1.1193,-1.1191,-1.1181,-1.1182,-1.118,-1.1167,-1.1167,-1.116,-1.1153,-1.1151,-1.1143,-1.114,-1.1132,-1.1129,-1.113,-1.1122,-1.1128,-1.1121,-1.1117,-1.1117,-1.1119,-1.1139,-1.1145,-1.1156,-1.1132,-1.1132,-1.1132,0,-1.1208,-1.1203,-1.1204,-1.1193,-1.1192,-1.1192,-1.1185,-1.1183,-1.1175,-1.117,-1.1166,-1.1157,-1.1156,-1.1148,-1.1146,-1.1142,-1.114,-1.1136,-1.1136,-1.1135,-1.1125,-1.1138,-1.116,-1.1161,-1.1135,-1.1134,-1.1134,0,-1.1227,-1.122,-1.122,-1.1217,-1.1204,-1.1204,-1.1199,-1.1191,-1.1188,-1.1182,-1.118,-1.1175,-1.1172,-1.1169,-1.1159,-1.1153,-1.1158,-1.1149,-1.1154,-1.1154,-1.1155,-1.1155,-1.1176,-1.1155,-1.1155,-1.1155,-1.1155,0,-1.1243,-1.1244,-1.1228,-1.1228,-1.1229,-1.1217,-1.1218,-1.1212,-1.1205,-1.1203,-1.1192,-1.119,-1.1177,-1.1175,-1.1167,-1.1167,-1.1166,-1.1162,-1.116,-1.1162,-1.1163,-1.116,-1.1159,-1.1155,-1.1155,-1.1155,-1.1155,0,-1.1264,-1.1253,-1.1252,-1.124,-1.1237,-1.1238,-1.1228,-1.1227,-1.122,-1.1218,-1.1217,-1.1205,-1.1201,-1.1191,-1.1185,-1.1179,-1.1181,-1.1178,-1.1184,-1.1182,-1.1188,-1.1187,-1.1208,-1.1209,-1.1187,-1.1188,-1.1188,0,-1.1274,-1.1275,-1.1263,-1.1261,-1.1256,-1.1253,-1.1249,-1.1238,-1.1235,-1.1226,-1.1226,-1.1222,-1.1217,-1.1212,-1.1203,-1.1198,-1.1194,-1.1202,-1.1193,-1.1196,-1.1194,-1.1193,-1.1193,-1.1203,-1.1204,-1.1204,-1.1204,0,-1.1294,-1.1289,-1.1284,-1.1278,-1.1275,-1.1269,-1.1263,-1.1262,-1.1249,-1.1247,-1.1243,-1.1239,-1.1233,-1.1228,-1.1222,-1.1217,-1.1208,-1.1207,-1.1208,-1.121,-1.1213,-1.1211,-1.1188,-1.1206,-1.1206,-1.1206,-1.1206,-1.1206,-1.131,-1.1309,-1.13,-1.1296,-1.129,-1.1285,-1.1284,-1.1276,-1.1272,-1.1265,-1.1259,-1.1255,-1.1247,-1.1238,-1.1234,-1.1231,-1.1226,-1.1228,-1.1228,-1.1228,-1.1229,-1.1214,-1.123,-1.123,-1.123,-1.1229,-1.1229,0,-1.1328,-1.1322,-1.1318,-1.131,-1.1306,-1.1298,-1.1291,-1.1289,-1.1286,-1.1279,-1.1275,-1.127,-1.1265,-1.1256,-1.1251,-1.125,-1.1246,-1.1249,-1.1249,-1.1248,-1.1234,-1.1233,-1.1253,-1.1253,-1.1253,-1.1253,-1.1253,-1.1253,-1.1337,-1.1336,-1.133,-1.1326,-1.1319,-1.1315,-1.1312,-1.1307,-1.1302,-1.1296,-1.1292,-1.1286,-1.1279,-1.1273,-1.1268,-1.1266,-1.1264,-1.1268,-1.1264,-1.1251,-1.1249,-1.1247,-1.1246,-1.1268,-1.1268,-1.1278,-1.1278,-1.1279]},{"header":{"parameterUnit":"m.s-1","parameterCategory":1,"la1":30.2991,"la2":30.254,"lo1":-89.0895,"lo2":-89.0444,"dy":0.0017,"dx":0.0017,"nx":28,"ny":28,"refTime":"2026-01-08T03:00:00:Z","depth":0,"parameterNumber":3,"parameterNumberName":"V-component_of_WINDS"},"data":[0,0,0,0,0,0,0,0,0,0,0,0,0,0,0,0,0,0,0,0,0,0,0,0,0,0,0,0,0,0,0,0,0,0,0,0,0,0,0,0,0,0,0,0,0,0,0,0,0,0,0,0,0,0,0,0,0,0,1.6736,1.6737,0,1.6846,1.6847,1.6849,1.6866,1.6865,1.6864,1.6863,1.6977,1.6981,1.6985,0,0,0,0,0,0,0,0,0,0,0,0,0,1.6544,1.6548,1.6736,1.6738,1.6739,1.6846,1.6847,1.6849,1.6866,1.6865,1.6864,1.6863,1.6976,1.698,1.6985,0,0,0,0,0,0,0,0,0,0,0,0,0,1.6638,1.6549,1.6736,1.6761,1.6764,1.6846,1.6847,1.6849,1.6867,1.6865,1.6864,1.6862,1.6974,1.698,1.6986,1.7051,0,0,1.7004,1.7006,0,0,0,0,0,0,0,0,1.6633,1.6645,1.6756,1.6759,1.6763,1.6841,1.6821,1.6917,1.6867,1.6828,1.6863,1.6862,1.6933,1.6942,1.6966,1.7056,1.7061,1.7004,1.7008,1.701,1.7012,0,0,0,0,0,0,0,1.6626,1.6641,1.678,1.6757,1.6762,1.6767,1.6779,1.684,1.6887,1.6831,1.6833,1.6845,1.6935,1.696,1.6969,1.7063,1.7004,1.7009,1.7013,1.7015,1.7215,1.7217,0,0,0,0,0,0,1.6615,1.6635,1.6776,1.6783,1.6693,1.6772,1.6785,1.6817,1.6887,1.6896,1.6846,1.6846,1.6951,1.6962,1.6973,1.7056,1.701,1.7016,1.7019,1.7213,1.7215,1.7217,0,0,0,0,0,0,1.6611,1.6627,1.6772,1.671,1.6728,1.6776,1.6813,1.682,1.6846,1.6898,1.6907,1.6864,1.695,1.6965,1.7032,1.706,1.7018,1.7024,1.7211,1.7214,1.7216,1.7221,0,0,0,0,0,0,1.6605,1.6626,1.665,1.671,1.6732,1.6828,1.6815,1.6824,1.6856,1.6856,1.6917,1.6925,1.695,1.7023,1.7038,1.7067,1.7028,1.7209,1.7212,1.7215,1.7219,1.7223,1.7228,0,0,0,0,0,1.6598,1.6647,1.6652,1.6669,1.6763,1.683,1.6842,1.687,1.6858,1.6884,1.6918,1.6923,1.7054,1.703,1.7047,1.7078,1.7207,1.7211,1.7215,1.7216,1.7222,1.7227,0,0,0,0,0,0,1.659,1.6655,1.6661,1.673,1.6774,1.6833,1.6866,1.6875,1.6923,1.6922,1.6954,1.6967,1.7034,1.7062,1.7034,1.7146,1.713,1.7137,1.7125,1.7131,1.7136,1.7128,1.7033,0,0,0,0,0,1.6596,1.6644,1.6699,1.6755,1.6777,1.6817,1.6847,1.6865,1.6912,1.6931,1.6969,1.7015,1.7067,1.7101,1.7151,1.7222,1.7237,1.7253,1.7257,1.7261,1.7267,1.7309,1.7318,1.723,1.723,1.723,0,0,1.6609,1.6651,1.6679,1.6754,1.679,1.6841,1.6833,1.6886,1.6924,1.6939,1.7006,1.7035,1.7089,1.7159,1.7192,1.7186,1.7294,1.7266,1.7268,1.7273,1.7314,1.7323,1.733,1.7233,1.7233,1.7232,0,0,1.6659,1.6695,1.6746,1.6783,1.6838,1.6865,1.6878,1.6935,1.6956,1.7023,1.7036,1.7082,1.7169,1.7208,1.7239,1.7305,1.7313,1.7321,1.7345,1.7386,1.7393,1.7399,1.7425,1.7433,1.7327,1.7327,1.7327,0,1.6669,1.6744,1.6772,1.6825,1.6858,1.6874,1.6928,1.6962,1.7031,1.7054,1.7045,1.7157,1.7194,1.7275,1.7291,1.7315,1.7332,1.7314,1.7389,1.7396,1.7402,1.7427,1.7436,1.7327,1.7327,1.7327,1.7327,0,1.6755,1.6807,1.6842,1.6908,1.6946,1.6998,1.7035,1.707,1.7084,1.7112,1.7182,1.7227,1.7288,1.7308,1.7322,1.7391,1.7386,1.7382,1.7367,1.7411,1.7435,1.7444,1.7328,1.7328,1.7328,1.7328,0,0,1.6803,1.6884,1.6897,1.6928,1.699,1.7032,1.7086,1.7146,1.7176,1.7222,1.727,1.7345,1.7343,1.7378,1.7397,1.7433,1.7485,1.7426,1.7428,1.7437,1.7567,1.757,1.758,1.749,1.7492,1.7493,1.7563,0,1.6862,1.6958,1.6985,1.7068,1.7118,1.7134,1.7182,1.7226,1.7254,1.7301,1.7332,1.7386,1.7378,1.74,1.7436,1.7471,1.7512,1.7466,1.7536,1.7538,1.7524,1.7592,1.7595,1.7658,1.7572,1.7574,1.7575,0,1.6943,1.6992,1.708,1.7138,1.716,1.7202,1.726,1.7304,1.7355,1.7373,1.7413,1.7429,1.7488,1.7468,1.755,1.7519,1.7549,1.7571,1.7574,1.7583,1.756,1.7605,1.7679,1.7689,1.7589,1.7588,1.7587,0,1.6972,1.706,1.7124,1.715,1.7218,1.7248,1.7278,1.7328,1.7362,1.7413,1.7436,1.7492,1.7524,1.7568,1.7599,1.7582,1.768,1.7662,1.7698,1.7698,1.7719,1.7718,1.7801,1.7736,1.7735,1.7735,1.7735,0,1.7036,1.7089,1.7138,1.7178,1.7239,1.727,1.7329,1.736,1.7404,1.7451,1.7468,1.7512,1.755,1.76,1.7625,1.7691,1.7704,1.7722,1.7728,1.7721,1.7719,1.7742,1.774,1.7738,1.7737,1.7737,1.7736,0,1.7079,1.7113,1.7185,1.7244,1.726,1.7303,1.7354,1.7394,1.7423,1.7482,1.7498,1.7544,1.7603,1.7639,1.7713,1.773,1.7804,1.7807,1.7786,1.779,1.7824,1.7821,1.7927,1.7943,1.7865,1.7866,1.7866,0,1.7118,1.7159,1.7223,1.7256,1.7286,1.7338,1.7374,1.7407,1.7443,1.7505,1.7538,1.7599,1.7649,1.7743,1.7783,1.7841,1.7848,1.7881,1.7856,1.7849,1.7851,1.7848,1.7854,1.7885,1.7886,1.7886,1.7887,0,1.7185,1.72,1.725,1.7308,1.735,1.7396,1.7443,1.7468,1.7509,1.7549,1.761,1.7649,1.7726,1.7786,1.7848,1.788,1.7891,1.7894,1.7906,1.79,1.7887,1.7897,1.78,1.7892,1.7891,1.7891,1.7891,1.789,1.7228,1.7267,1.7318,1.7375,1.7413,1.7456,1.7497,1.7532,1.7583,1.7648,1.7664,1.7728,1.778,1.7864,1.7898,1.795,1.7944,1.7961,1.7965,1.7969,1.7971,1.7878,1.7961,1.796,1.796,1.796,1.796,0,1.7298,1.7332,1.7383,1.7448,1.7493,1.7498,1.755,1.7588,1.7644,1.7691,1.7741,1.7812,1.7871,1.7916,1.7977,1.801,1.8017,1.8025,1.8024,1.8032,1.7971,1.7956,1.8019,1.8019,1.8019,1.8019,1.8019,1.8019,1.7339,1.7406,1.7427,1.7513,1.7547,1.7611,1.764,1.7681,1.7719,1.7797,1.7847,1.7876,1.7923,1.7988,1.8043,1.8055,1.8077,1.8085,1.8098,1.8042,1.8035,1.8029,1.8015,1.8089,1.8089,1.8155,1.8155,1.8156]}]]